EGHHEGKA

Guest
Details From EGHH - Bournemouth
To EGKA - Shoreham
Flight Number -
Tags generated
Created
Modified
Stats Distance 59 nm / 109 km
Max Altitude 5,200 ft / 1,585 m
Waypoints 3
Social Downloads 0
Likes 0
Share VATSIM

Download

Looking for another format? Having issues loading an existing format? Contact us
Advertisement - Login to hide

Notes

Basic altitude profile: - Ascent Rate: 1000ft/min - Ascent Speed: 95kts - Cruise Altitude: 2500ft - Cruise Speed: 120kts - Descent Rate: 1250ft/min - Descent Speed: 110kts Options: - Use NATs: yes - Use PACOTS: yes - Use low airways: yes - Use high airways: yes

Route

EGHH AVANT EGKA

ID Type Via Altitude (ft/m) Position (lat/lon) Dist (leg/tot) Name
O EGHH APT - 0 / 0 50.78007 / -1.84253 - / 0 nm Bournemouth
AVANT FIX - 5,200 / 1,585 50.82000 / -0.93833 34 / 34 nm
O EGKA APT - 0 / 0 50.83580 / -0.29481 24 / 58 nm Shoreham

Altitude Profile

Advertisement - Login to hide

EGHH

Details ICAO EGHH (BOH)
Name Bournemouth
Region United Kingdom
Timezone Europe/London (UTC+1.0)
Stats Elevation 38 ft / 12 m (AMSL)
Location 50.780100° -1.842530°
Runways 1
Magnetic Variation 0.839° W

METAR

EGHH 170720Z 18003KT 7000 SCT008 BKN028 13/13 Q1018

Decode

TAF

Not found

Departure Runways

ID Width Length Bearing (true/mag) Surface Threshold Overrun Markings Lighting
08 151 ft / 46 m 7,440 ft / 2,268 m 75.27° / 76.11° ASPHALT 1,424 ft / 434 m 0 ft / 0 m UK-PREC-APP EDGE THRESHOLD ALSF-I REIL-OMNI
26 151 ft / 46 m 7,440 ft / 2,268 m 255.29° / 256.13° ASPHALT 0 ft / 0 m 328 ft / 100 m UK-PREC-APP EDGE THRESHOLD CALVERT TDZ REIL-OMNI

EGKA

Details ICAO EGKA (ESH)
Name Shoreham
Region United Kingdom
Timezone Europe/London (UTC+1.0)
Stats Elevation 7 ft / 2 m (AMSL)
Location 50.835800° -0.294211°
Runways 3
Magnetic Variation 0.312° W

METAR

EGKA 170720Z 010004KT 9999 BKN016 10/10 Q1018

Decode

TAF

Not found

Destination Runways

ID Width Length Bearing (true/mag) Surface Threshold Overrun Markings Lighting
02 60 ft / 18 m 3,383 ft / 1,031 m 21.53° / 21.84° ASPHALT 538 ft / 164 m 0 ft / 0 m VISUAL EDGE THRESHOLD
06 80 ft / 24 m 2,625 ft / 800 m 63.33° / 63.64° GRASS 394 ft / 120 m 0 ft / 0 m NONE
13 59 ft / 18 m 1,775 ft / 541 m 124.94° / 125.25° GRASS 0 ft / 0 m 0 ft / 0 m NONE
20 60 ft / 18 m 3,383 ft / 1,031 m 201.53° / 201.85° ASPHALT 361 ft / 110 m 0 ft / 0 m VISUAL EDGE THRESHOLD
24 80 ft / 24 m 2,625 ft / 800 m 243.33° / 243.65° GRASS 282 ft / 86 m 0 ft / 0 m NONE
31 59 ft / 18 m 1,775 ft / 541 m 304.94° / 305.25° GRASS 433 ft / 132 m 0 ft / 0 m NONE

Popular Alternatives